Weather Roundup
Issued by NWS Springfield, MO

Home | Current Version | Previous Version | Text Only | Print | Product List | Glossary On
Versions: 1 2 3 4 5 6 7 8 9 10 11 12 13 14 15 16 17 18 19 20 21 22 23 24 25 26 27 28 29 30 31 32 33 34 35 36 37 38 39 40 41 42 43 44 45 46 47 48 49 50
000
NZUS99 KSGF 280807
HRRSGF

HOURLY WEATHER
NATIONAL WEATHER SERVICE SPRINGFIELD MO
300 AM CDT THU MAY 28 2015

......SGF CWA......

CITY           SKY/WX    TMP DP  RH WIND       PRES   REMARKS
SPRINGFIELD    PTCLDY    68  63  84 SE3       30.09F
JOPLIN         PTCLDY    66  62  87 SE3       30.08S
WEST PLAINS    CLOUDY    67  65  93 SE3       30.13F
ROLLA          MOCLDY    63  58  83 E6        30.12F
OSAGE BEACH    MOCLDY    63  57  82 NE5       30.10F
BRANSON        FAIR      66  66 100 CALM      30.11F

......SURROUNDING SGF CWA......

CITY           SKY/WX    TMP DP  RH WIND       PRES   REMARKS
CHANUTE        MOCLDY    68  63  84 SE6       30.05F
PARSONS        MOCLDY    68  66  93 CALM      30.06F
COFFEYVILLE    MOCLDY    67  65  93 E3        30.05F
EMPORIA        CLOUDY    68  59  73 SE13      30.03F
GROVE OK       MOCLDY    66  66 100 CALM      30.08S
ROGERS AR      CLOUDY    64  64 100 E3        30.11S FOG
SILOAM SPRINGS MOCLDY    64  57  77 E3        30.10F
HARRISON AR    FAIR      64  64 100 SE6       30.11F
NEAR YELLVILLE MOCLDY    66  64  94 CALM      30.08F

......KANSAS AND MISSOURI......

CITY           SKY/WX    TMP DP  RH WIND       PRES   REMARKS
KANSAS CTY INT MOCLDY    66  56  70 SE8       30.08F
DOWNTOWN KC    MOCLDY    66  57  72 E5        30.07F
COLUMBIA       PTCLDY    65  57  75 E6        30.14F
SEDALIA        PTCLDY    64  56  75 E6        30.12F
ST JOSEPH      CLOUDY    65  57  75 SE6       30.07F
ST LOUIS       MOCLDY    67  58  72 CALM      30.15F
SPIRIT OF STL  MOCLDY    60  59  96 CALM      30.14S
KIRKSVILLE     CLEAR     63  57  81 SE5       30.15S
WICHITA        CLOUDY    66  63  90 SE6       30.04S THUNDER
TOPEKA         CLOUDY    66  59  78 E5        30.06F
OLATHE         MOCLDY    68  56  65 SE8       30.07F

......TENNESSEE......

CITY           SKY/WX    TMP DP  RH WIND       PRES   REMARKS
MEMPHIS        CLOUDY    70  66  87 SE5       30.12F

......ARKANSAS.......

CITY           SKY/WX    TMP DP  RH WIND       PRES   REMARKS
FAYETTEVILLE   MOCLDY    62  61  96 CALM      30.10S
FT SMITH       PTCLDY    69  66  90 CALM      30.06F
LITTLE ROCK    CLOUDY    70  67  90 CALM      30.10F

......OKLAHOMA.......

CITY           SKY/WX    TMP DP  RH WIND       PRES   REMARKS
TULSA          CLOUDY    69  64  84 SE3       30.03F
PONCA CITY     TSTM      66  65  96 SE13      30.06F FOG
MCALESTER      MOCLDY    68  65  90 SE5       30.06S
OKLAHOMA CITY  CLOUDY    68  64  87 S6        30.05S

......IOWA............

CITY           SKY/WX    TMP DP  RH WIND       PRES   REMARKS
DES MOINES     CLEAR     65  57  75 S7        30.11R
QUAD CITIES    PTCLDY    62  55  77 CALM      30.14S

......ILLINOIS........

CITY           SKY/WX    TMP DP  RH WIND       PRES   REMARKS
QUINCY         MOCLDY    62  56  80 SE6       30.14F
CHICAGO        PTCLDY    59  55  87 SW3       30.16S



USA.gov is the U.S. government's official web portal to all federal, state and local government web resources and services.